Year,Month,Day,Hour,Minute,Value (Times are PST for temperature in C)
2015,06,13,07,15,13.30
2015,06,13,07,16,13.30
2015,06,13,07,17,13.40
2015,06,13,07,18,13.40
2015,06,13,07,19,13.50
2015,06,13,07,20,13.50
2015,06,13,07,21,13.60
2015,06,13,07,22,13.60
2015,06,13,07,23,13.60
2015,06,13,07,24,13.60
2015,06,13,07,25,13.60
2015,06,13,07,26,13.70
2015,06,13,07,27,13.70
2015,06,13,07,28,13.70
2015,06,13,07,29,13.70
2015,06,13,07,30,13.70
2015,06,13,07,31,13.80
2015,06,13,07,32,13.80
2015,06,13,07,33,13.90
2015,06,13,07,34,13.90
2015,06,13,07,35,13.90
2015,06,13,07,36,13.80
2015,06,13,07,37,13.80
2015,06,13,07,38,13.80
2015,06,13,07,39,13.80
2015,06,13,07,40,13.90
2015,06,13,07,41,13.90
2015,06,13,07,42,14.00
2015,06,13,07,43,14.10
2015,06,13,07,44,14.20
2015,06,13,07,45,14.30
2015,06,13,07,46,14.40
2015,06,13,07,47,14.50
2015,06,13,07,48,14.60
2015,06,13,07,49,14.80
2015,06,13,07,50,14.80
2015,06,13,07,51,14.90
2015,06,13,07,52,14.90
2015,06,13,07,53,15.00
2015,06,13,07,54,15.00
2015,06,13,07,55,15.00
2015,06,13,07,56,15.00
2015,06,13,07,57,15.00
2015,06,13,07,58,15.00
2015,06,13,07,59,15.00
2015,06,13,08,00,15.10
2015,06,13,08,01,15.10
2015,06,13,08,02,15.10
2015,06,13,08,03,15.00
2015,06,13,08,04,15.00
2015,06,13,08,05,15.00
2015,06,13,08,06,15.00
2015,06,13,08,07,15.00
2015,06,13,08,08,15.00
2015,06,13,08,09,15.00
2015,06,13,08,10,15.00
2015,06,13,08,11,15.00
2015,06,13,08,12,15.00
2015,06,13,08,13,15.00
2015,06,13,08,14,15.00
2015,06,13,08,15,14.90
2015,06,13,08,16,14.90
2015,06,13,08,17,14.80
2015,06,13,08,18,14.90
2015,06,13,08,19,14.90
2015,06,13,08,20,14.80
2015,06,13,08,21,14.80
2015,06,13,08,22,14.80
2015,06,13,08,23,14.80
2015,06,13,08,24,14.80
2015,06,13,08,25,14.80
2015,06,13,08,26,14.80
2015,06,13,08,27,14.80
2015,06,13,08,28,14.80
2015,06,13,08,29,15.00
2015,06,13,08,30,15.00
2015,06,13,08,31,15.10
2015,06,13,08,32,15.10
2015,06,13,08,33,15.10
2015,06,13,08,34,15.10
2015,06,13,08,35,15.10
2015,06,13,08,36,15.10
2015,06,13,08,37,15.10
2015,06,13,08,38,15.10
2015,06,13,08,39,15.20
2015,06,13,08,40,15.20
2015,06,13,08,41,15.30
2015,06,13,08,42,15.30
2015,06,13,08,43,15.40
2015,06,13,08,44,15.40
2015,06,13,08,45,15.50
2015,06,13,08,46,15.60
2015,06,13,08,47,15.60
2015,06,13,08,48,15.60
2015,06,13,08,49,15.50
2015,06,13,08,50,15.50
2015,06,13,08,51,15.40
2015,06,13,08,52,15.40
2015,06,13,08,53,15.40
2015,06,13,08,54,15.40
2015,06,13,08,55,15.40
2015,06,13,08,56,15.40
2015,06,13,08,57,15.50
2015,06,13,08,58,15.50
2015,06,13,08,59,15.50
2015,06,13,09,00,15.50
2015,06,13,09,01,15.40
2015,06,13,09,02,15.40
2015,06,13,09,03,15.30
2015,06,13,09,04,15.30
2015,06,13,09,05,15.30
2015,06,13,09,06,15.20
2015,06,13,09,07,15.20
2015,06,13,09,08,15.30
2015,06,13,09,09,15.30
2015,06,13,09,10,15.30
2015,06,13,09,11,15.40
2015,06,13,09,12,15.50
2015,06,13,09,13,15.50
2015,06,13,09,14,15.60
2015,06,13,09,15,15.60
2015,06,13,09,16,15.60
2015,06,13,09,17,15.60
2015,06,13,09,18,15.60
2015,06,13,09,19,15.50
2015,06,13,09,20,15.50
2015,06,13,09,21,15.50
2015,06,13,09,22,15.50
2015,06,13,09,23,15.50
2015,06,13,09,24,15.50
2015,06,13,09,25,15.60
2015,06,13,09,26,15.60
2015,06,13,09,27,15.60
2015,06,13,09,28,15.50
2015,06,13,09,29,15.50
2015,06,13,09,30,15.60
2015,06,13,09,31,15.50
2015,06,13,09,32,15.50
2015,06,13,09,33,15.40
2015,06,13,09,34,15.30
2015,06,13,09,35,15.30
2015,06,13,09,36,15.30
2015,06,13,09,37,15.40
2015,06,13,09,38,15.40
2015,06,13,09,39,15.40
2015,06,13,09,40,15.30
2015,06,13,09,41,15.40
2015,06,13,09,42,15.40
2015,06,13,09,43,15.50
2015,06,13,09,44,15.50
2015,06,13,09,45,15.60
2015,06,13,09,46,15.70
2015,06,13,09,47,15.80
2015,06,13,09,48,15.80
2015,06,13,09,49,15.90
2015,06,13,09,50,15.90
2015,06,13,09,51,16.00
2015,06,13,09,52,16.10
2015,06,13,09,53,16.20
2015,06,13,09,54,16.30
2015,06,13,09,55,16.30
2015,06,13,09,56,16.30
2015,06,13,09,57,16.30
2015,06,13,09,58,16.10
2015,06,13,09,59,16.10
2015,06,13,10,00,16.10
2015,06,13,10,01,16.10
2015,06,13,10,02,16.00
2015,06,13,10,03,15.90
2015,06,13,10,04,15.90
2015,06,13,10,05,15.90
2015,06,13,10,06,15.90
2015,06,13,10,07,15.80
2015,06,13,10,08,15.90
2015,06,13,10,09,16.10
2015,06,13,10,10,16.20
2015,06,13,10,11,16.30
2015,06,13,10,12,16.40
2015,06,13,10,13,16.40
2015,06,13,10,14,16.40
2015,06,13,10,15,16.40
2015,06,13,10,16,16.40
2015,06,13,10,17,16.40
2015,06,13,10,18,16.40
2015,06,13,10,19,16.50
2015,06,13,10,20,16.60
2015,06,13,10,21,16.80
2015,06,13,10,22,16.80
2015,06,13,10,23,16.80
2015,06,13,10,24,16.80
2015,06,13,10,25,16.70
2015,06,13,10,26,16.60
2015,06,13,10,27,16.60
2015,06,13,10,28,16.60
2015,06,13,10,29,16.60
2015,06,13,10,30,16.60
2015,06,13,10,31,16.70
2015,06,13,10,32,16.70
2015,06,13,10,33,16.80
2015,06,13,10,34,16.80
2015,06,13,10,35,16.80
2015,06,13,10,36,16.70
2015,06,13,10,37,16.70
2015,06,13,10,38,16.70
2015,06,13,10,39,16.70
2015,06,13,10,40,16.70
2015,06,13,10,41,16.70
2015,06,13,10,42,16.70
2015,06,13,10,43,16.70
2015,06,13,10,44,16.70
2015,06,13,10,45,16.70
2015,06,13,10,46,16.70
2015,06,13,10,47,16.70
2015,06,13,10,48,16.70
2015,06,13,10,49,16.70
2015,06,13,10,50,16.70
2015,06,13,10,51,16.70
2015,06,13,10,52,16.70
2015,06,13,10,53,16.70
2015,06,13,10,54,16.80
2015,06,13,10,55,16.90
2015,06,13,10,56,16.90
2015,06,13,10,57,16.90
2015,06,13,10,58,16.90
2015,06,13,10,59,17.00
2015,06,13,11,00,17.00
2015,06,13,11,01,17.10
2015,06,13,11,02,17.10
2015,06,13,11,03,17.20
2015,06,13,11,04,17.30
2015,06,13,11,05,17.30
2015,06,13,11,06,17.30
2015,06,13,11,07,17.30
2015,06,13,11,08,17.30
2015,06,13,11,09,17.40
2015,06,13,11,10,17.40
2015,06,13,11,11,17.40
2015,06,13,11,12,17.30
2015,06,13,11,13,17.20
2015,06,13,11,14,17.20
2015,06,13,11,15,17.10
2015,06,13,11,16,17.10
2015,06,13,11,17,17.10
2015,06,13,11,18,17.20
2015,06,13,11,19,17.30
2015,06,13,11,20,17.40
2015,06,13,11,21,17.60
2015,06,13,11,22,17.70
2015,06,13,11,23,17.70
2015,06,13,11,24,17.60
2015,06,13,11,25,17.60
2015,06,13,11,26,17.60
2015,06,13,11,27,17.70
2015,06,13,11,28,17.80
2015,06,13,11,29,17.90
2015,06,13,11,30,17.90
2015,06,13,11,31,17.90
2015,06,13,11,32,17.90
2015,06,13,11,33,17.80
2015,06,13,11,34,17.70
2015,06,13,11,35,17.50
2015,06,13,11,36,17.50
2015,06,13,11,37,17.50
2015,06,13,11,38,17.50
2015,06,13,11,39,17.40
2015,06,13,11,40,17.40
2015,06,13,11,41,17.50
2015,06,13,11,42,17.70
2015,06,13,11,43,17.80
2015,06,13,11,44,17.90
2015,06,13,11,45,17.90
2015,06,13,11,46,18.00
2015,06,13,11,47,18.10
2015,06,13,11,48,18.10
2015,06,13,11,49,18.00
2015,06,13,11,50,17.90
2015,06,13,11,51,17.80
2015,06,13,11,52,17.80
2015,06,13,11,53,17.70
2015,06,13,11,54,17.70
2015,06,13,11,55,17.70
2015,06,13,11,56,17.80
2015,06,13,11,57,17.80
2015,06,13,11,58,17.90
2015,06,13,11,59,17.90
2015,06,13,12,00,17.80
2015,06,13,12,01,17.70
2015,06,13,12,02,17.60
2015,06,13,12,03,17.50
2015,06,13,12,04,17.40
2015,06,13,12,05,17.30
2015,06,13,12,06,17.30
2015,06,13,12,07,17.40
2015,06,13,12,08,17.40
2015,06,13,12,09,17.40
2015,06,13,12,10,17.40
2015,06,13,12,11,17.30
2015,06,13,12,12,17.30
2015,06,13,12,13,17.30
2015,06,13,12,14,17.40
2015,06,13,12,15,17.60
2015,06,13,12,16,17.70
2015,06,13,12,17,17.80
2015,06,13,12,18,18.00
2015,06,13,12,19,18.10
2015,06,13,12,20,18.20
2015,06,13,12,21,18.30
2015,06,13,12,22,18.30
2015,06,13,12,23,18.30
2015,06,13,12,24,18.30
2015,06,13,12,25,18.30
2015,06,13,12,26,18.40
2015,06,13,12,27,18.40
2015,06,13,12,28,18.40
2015,06,13,12,29,18.40
2015,06,13,12,30,18.40
2015,06,13,12,31,18.50
2015,06,13,12,32,18.40
2015,06,13,12,33,18.30
2015,06,13,12,34,18.20
2015,06,13,12,35,18.20
2015,06,13,12,36,18.30
2015,06,13,12,37,18.30
2015,06,13,12,38,18.40
2015,06,13,12,39,18.40
2015,06,13,12,40,18.50
2015,06,13,12,41,18.60
2015,06,13,12,42,18.60
2015,06,13,12,43,18.70
2015,06,13,12,44,18.70
2015,06,13,12,45,18.70
2015,06,13,12,46,18.60
2015,06,13,12,47,18.50
2015,06,13,12,48,18.40
2015,06,13,12,49,18.40
2015,06,13,12,50,18.30
2015,06,13,12,51,18.30
2015,06,13,12,52,18.20
2015,06,13,12,53,18.30
2015,06,13,12,54,18.40
2015,06,13,12,55,18.50
2015,06,13,12,56,18.50
2015,06,13,12,57,18.60
2015,06,13,12,58,18.70
2015,06,13,12,59,18.70
2015,06,13,13,00,18.80
2015,06,13,13,01,18.90
2015,06,13,13,02,18.90
2015,06,13,13,03,18.90
2015,06,13,13,04,18.90
2015,06,13,13,05,18.90
2015,06,13,13,06,18.90
2015,06,13,13,07,18.90
2015,06,13,13,08,18.80
2015,06,13,13,09,18.70
2015,06,13,13,10,18.60
2015,06,13,13,11,18.60
2015,06,13,13,12,18.60
2015,06,13,13,13,18.60
2015,06,13,13,14,18.70
2015,06,13,13,15,18.80
2015,06,13,13,16,18.80
2015,06,13,13,17,18.70
2015,06,13,13,18,18.70
2015,06,13,13,19,18.80
2015,06,13,13,20,18.90
2015,06,13,13,21,18.80
2015,06,13,13,22,18.70
2015,06,13,13,23,18.70
2015,06,13,13,24,18.80
2015,06,13,13,25,18.80
2015,06,13,13,26,18.90
2015,06,13,13,27,18.90
2015,06,13,13,28,18.90
2015,06,13,13,29,18.80
2015,06,13,13,30,18.80
2015,06,13,13,31,18.90
2015,06,13,13,32,18.90
2015,06,13,13,33,18.90
2015,06,13,13,34,19.00
2015,06,13,13,35,19.10
2015,06,13,13,36,19.10
2015,06,13,13,37,19.10
2015,06,13,13,38,19.10
2015,06,13,13,39,19.10
2015,06,13,13,40,19.20
2015,06,13,13,41,19.30
2015,06,13,13,42,19.30
2015,06,13,13,43,19.30
2015,06,13,13,44,19.40
2015,06,13,13,45,19.30
2015,06,13,13,46,19.20
2015,06,13,13,47,19.00
2015,06,13,13,48,18.90
2015,06,13,13,49,18.90
2015,06,13,13,50,18.90
2015,06,13,13,51,18.90
2015,06,13,13,52,19.00
2015,06,13,13,53,19.10
2015,06,13,13,54,19.10
2015,06,13,13,55,19.20
2015,06,13,13,56,19.30
2015,06,13,13,57,19.40
2015,06,13,13,58,19.50
2015,06,13,13,59,19.50
2015,06,13,14,00,19.60
2015,06,13,14,01,19.60
2015,06,13,14,02,19.70
2015,06,13,14,03,19.80
2015,06,13,14,04,19.90
2015,06,13,14,05,20.00
2015,06,13,14,06,19.90
2015,06,13,14,07,19.90
2015,06,13,14,08,19.80
2015,06,13,14,09,19.70
2015,06,13,14,10,19.60
2015,06,13,14,11,19.60
2015,06,13,14,12,19.70
2015,06,13,14,13,19.80
2015,06,13,14,14,19.80
2015,06,13,14,15,19.90
2015,06,13,14,16,19.90
2015,06,13,14,17,19.90
2015,06,13,14,18,19.90
2015,06,13,14,19,20.00
2015,06,13,14,20,20.00
2015,06,13,14,21,19.90
2015,06,13,14,22,19.90
2015,06,13,14,23,20.00
2015,06,13,14,24,20.10
2015,06,13,14,25,20.20
2015,06,13,14,26,20.20
2015,06,13,14,27,20.20
2015,06,13,14,28,20.20
2015,06,13,14,29,20.20
2015,06,13,14,30,20.20
2015,06,13,14,31,20.20
2015,06,13,14,32,20.20
2015,06,13,14,33,20.10
2015,06,13,14,34,20.10
2015,06,13,14,35,20.00
2015,06,13,14,36,19.90
2015,06,13,14,37,20.10
2015,06,13,14,38,20.20
2015,06,13,14,39,20.30
2015,06,13,14,40,20.40
2015,06,13,14,41,20.60
2015,06,13,14,42,20.70
2015,06,13,14,43,20.80
2015,06,13,14,44,20.80
2015,06,13,14,45,20.80
2015,06,13,14,46,20.70
2015,06,13,14,47,20.70
2015,06,13,14,48,20.60
2015,06,13,14,49,20.60
2015,06,13,14,50,20.70
2015,06,13,14,51,20.80
2015,06,13,14,52,20.90
2015,06,13,14,53,21.00
2015,06,13,14,54,21.00
2015,06,13,14,55,21.00
2015,06,13,14,56,21.10
2015,06,13,14,57,21.20
2015,06,13,14,58,21.30
2015,06,13,14,59,21.40
2015,06,13,15,00,21.50
2015,06,13,15,01,21.60
2015,06,13,15,02,21.60
2015,06,13,15,03,21.60
2015,06,13,15,04,21.60
2015,06,13,15,05,21.60
2015,06,13,15,06,21.70
2015,06,13,15,07,21.80
2015,06,13,15,08,21.80
2015,06,13,15,09,21.80
2015,06,13,15,10,21.80
2015,06,13,15,11,21.70
2015,06,13,15,12,21.70
2015,06,13,15,13,21.70
2015,06,13,15,14,21.80
2015,06,13,15,15,21.80
2015,06,13,15,16,21.80
2015,06,13,15,17,21.90
2015,06,13,15,18,22.00
2015,06,13,15,19,22.00
2015,06,13,15,20,21.90
2015,06,13,15,21,21.80
2015,06,13,15,22,21.60
2015,06,13,15,23,21.60
2015,06,13,15,24,21.60
2015,06,13,15,25,21.60
2015,06,13,15,26,21.60
2015,06,13,15,27,21.60
2015,06,13,15,28,21.60
2015,06,13,15,29,21.60
2015,06,13,15,30,21.60
2015,06,13,15,31,21.60
2015,06,13,15,32,21.50
2015,06,13,15,33,21.40
2015,06,13,15,34,21.50
2015,06,13,15,35,21.60
2015,06,13,15,36,21.60
2015,06,13,15,37,21.50
2015,06,13,15,38,21.30
2015,06,13,15,39,21.30
2015,06,13,15,40,21.40
2015,06,13,15,41,21.30
2015,06,13,15,42,21.40
2015,06,13,15,43,21.40
2015,06,13,15,44,21.40
2015,06,13,15,45,21.40
2015,06,13,15,46,21.50
2015,06,13,15,47,21.60
2015,06,13,15,48,21.60
2015,06,13,15,49,21.50
2015,06,13,15,50,21.30
2015,06,13,15,51,21.20
2015,06,13,15,52,21.00
2015,06,13,15,53,21.00
2015,06,13,15,54,20.80
2015,06,13,15,55,20.70
2015,06,13,15,56,20.60
2015,06,13,15,57,20.50
2015,06,13,15,58,20.40
2015,06,13,15,59,20.30
2015,06,13,16,00,20.20
2015,06,13,16,01,20.20
2015,06,13,16,02,20.10
2015,06,13,16,03,20.10
2015,06,13,16,04,20.10
2015,06,13,16,05,20.10
2015,06,13,16,06,19.90
2015,06,13,16,07,19.90
2015,06,13,16,08,19.90
2015,06,13,16,09,20.00
2015,06,13,16,10,20.10
2015,06,13,16,11,20.10
2015,06,13,16,12,20.00
2015,06,13,16,13,19.90
2015,06,13,16,14,19.70
2015,06,13,16,15,19.60
2015,06,13,16,16,19.50
2015,06,13,16,17,19.50
2015,06,13,16,18,19.50
2015,06,13,16,19,19.30
2015,06,13,16,20,19.10
2015,06,13,16,21,18.90
2015,06,13,16,22,18.70
2015,06,13,16,23,18.70
2015,06,13,16,24,18.70
2015,06,13,16,25,18.70
2015,06,13,16,26,18.70
2015,06,13,16,27,18.60
2015,06,13,16,28,18.60
2015,06,13,16,29,18.50
2015,06,13,16,30,18.50
2015,06,13,16,31,18.50
2015,06,13,16,32,18.40
2015,06,13,16,33,18.30
2015,06,13,16,34,18.20
2015,06,13,16,35,18.20
2015,06,13,16,36,18.20
2015,06,13,16,37,18.20
2015,06,13,16,38,18.20
2015,06,13,16,39,18.30
2015,06,13,16,40,18.40
2015,06,13,16,41,18.50
2015,06,13,16,42,18.60
2015,06,13,16,43,18.70
2015,06,13,16,44,18.80
2015,06,13,16,45,18.80
2015,06,13,16,46,18.90
2015,06,13,16,47,18.90
2015,06,13,16,48,18.90
2015,06,13,16,49,19.00
2015,06,13,16,50,19.10
2015,06,13,16,51,19.10
2015,06,13,16,52,19.10
2015,06,13,16,53,19.20
2015,06,13,16,54,19.20
2015,06,13,16,55,19.20
2015,06,13,16,56,19.10
2015,06,13,16,57,19.00
2015,06,13,16,58,18.90
2015,06,13,16,59,18.80
2015,06,13,17,00,18.70
2015,06,13,17,01,18.60
2015,06,13,17,02,18.60
2015,06,13,17,03,18.70
2015,06,13,17,04,18.70
2015,06,13,17,05,18.80
2015,06,13,17,06,18.90
2015,06,13,17,07,19.00
2015,06,13,17,08,19.10
2015,06,13,17,09,19.20
2015,06,13,17,10,19.30
2015,06,13,17,11,19.40
2015,06,13,17,12,19.50
2015,06,13,17,13,19.40
2015,06,13,17,14,19.40
2015,06,13,17,15,19.50
2015,06,13,17,16,19.60
2015,06,13,17,17,19.80
2015,06,13,17,18,19.90
2015,06,13,17,19,19.90
2015,06,13,17,20,20.00
2015,06,13,17,21,20.00
2015,06,13,17,22,19.90
2015,06,13,17,23,19.90
2015,06,13,17,24,19.80
2015,06,13,17,25,19.70
2015,06,13,17,26,19.60
2015,06,13,17,27,19.70
2015,06,13,17,28,19.70
2015,06,13,17,29,19.70
2015,06,13,17,30,19.70
2015,06,13,17,31,19.80
2015,06,13,17,32,19.80
2015,06,13,17,33,19.90
2015,06,13,17,34,19.90
2015,06,13,17,35,19.90
2015,06,13,17,36,19.90
2015,06,13,17,37,19.90
2015,06,13,17,38,19.90
2015,06,13,17,39,19.90
2015,06,13,17,40,19.90
2015,06,13,17,41,19.90
2015,06,13,17,42,19.90
2015,06,13,17,43,19.90
2015,06,13,17,44,19.90
2015,06,13,17,45,19.90
2015,06,13,17,46,19.80
2015,06,13,17,47,19.90
2015,06,13,17,48,19.90
2015,06,13,17,49,19.90
2015,06,13,17,50,19.90
2015,06,13,17,51,20.00
2015,06,13,17,52,20.10
2015,06,13,17,53,20.10
2015,06,13,17,54,20.10
2015,06,13,17,55,20.10
2015,06,13,17,56,20.10
2015,06,13,17,57,20.10
2015,06,13,17,58,20.20
2015,06,13,17,59,20.20
2015,06,13,18,00,20.30
2015,06,13,18,01,20.40
2015,06,13,18,02,20.50
2015,06,13,18,03,20.50
2015,06,13,18,04,20.60
2015,06,13,18,05,20.60
2015,06,13,18,06,20.60
2015,06,13,18,07,20.50
2015,06,13,18,08,20.50
2015,06,13,18,09,20.50
2015,06,13,18,10,20.50
2015,06,13,18,11,20.60
2015,06,13,18,12,20.60
2015,06,13,18,13,20.70
2015,06,13,18,14,20.70
2015,06,13,18,15,20.70
2015,06,13,18,16,20.70
2015,06,13,18,17,20.70
2015,06,13,18,18,20.80
2015,06,13,18,19,20.80
2015,06,13,18,20,20.80
2015,06,13,18,21,20.80
2015,06,13,18,22,20.70
2015,06,13,18,23,20.60
2015,06,13,18,24,20.30
2015,06,13,18,25,19.90
2015,06,13,18,26,19.70
2015,06,13,18,27,19.40
2015,06,13,18,28,19.30
2015,06,13,18,29,19.10
2015,06,13,18,30,19.00
2015,06,13,18,31,18.90
2015,06,13,18,32,18.90
2015,06,13,18,33,18.80
2015,06,13,18,34,18.60
2015,06,13,18,35,18.50
2015,06,13,18,36,18.30
2015,06,13,18,37,18.20
2015,06,13,18,38,18.20
2015,06,13,18,39,18.20
2015,06,13,18,40,18.20
2015,06,13,18,41,18.20
2015,06,13,18,42,18.20
2015,06,13,18,43,18.10
2015,06,13,18,44,17.90
2015,06,13,18,45,17.90
2015,06,13,18,46,17.80
2015,06,13,18,47,17.70
2015,06,13,18,48,17.70
2015,06,13,18,49,17.80
2015,06,13,18,50,17.90
2015,06,13,18,51,17.80
2015,06,13,18,52,17.80
2015,06,13,18,53,17.80
2015,06,13,18,54,17.80
2015,06,13,18,55,17.80
2015,06,13,18,56,17.80
2015,06,13,18,57,17.80
2015,06,13,18,58,17.80
2015,06,13,18,59,17.90
2015,06,13,19,00,18.00
2015,06,13,19,01,18.10
2015,06,13,19,02,18.10
2015,06,13,19,03,18.20
2015,06,13,19,04,18.20
2015,06,13,19,05,18.20
2015,06,13,19,06,18.10
2015,06,13,19,07,18.10
2015,06,13,19,08,18.10
2015,06,13,19,09,18.20
2015,06,13,19,10,18.20
2015,06,13,19,11,18.20
2015,06,13,19,12,18.30
2015,06,13,19,13,18.40
2015,06,13,19,14,18.40
2015,06,13,19,15,18.40
2015,06,13,19,16,18.50
2015,06,13,19,17,18.50
2015,06,13,19,18,18.50
2015,06,13,19,19,18.50
2015,06,13,19,20,18.60
2015,06,13,19,21,18.60
2015,06,13,19,22,18.70
2015,06,13,19,23,18.80
2015,06,13,19,24,18.80
2015,06,13,19,25,18.90
2015,06,13,19,26,18.90
2015,06,13,19,27,19.00
2015,06,13,19,28,19.10
2015,06,13,19,29,19.10
2015,06,13,19,30,19.20
2015,06,13,19,31,19.30
2015,06,13,19,32,19.30
2015,06,13,19,33,19.40
2015,06,13,19,34,19.40
2015,06,13,19,35,19.40
2015,06,13,19,36,19.40
2015,06,13,19,37,19.40
2015,06,13,19,38,19.40
2015,06,13,19,39,19.40
2015,06,13,19,40,19.40
2015,06,13,19,41,19.30
2015,06,13,19,42,19.30
2015,06,13,19,43,19.20
2015,06,13,19,44,19.10
2015,06,13,19,45,19.10
2015,06,13,19,46,19.10
2015,06,13,19,47,19.10
2015,06,13,19,48,19.10
2015,06,13,19,49,19.10
2015,06,13,19,50,19.00
2015,06,13,19,51,18.90
2015,06,13,19,52,18.90
2015,06,13,19,53,18.90
2015,06,13,19,54,18.90
2015,06,13,19,55,18.90
2015,06,13,19,56,18.90
2015,06,13,19,57,18.90
2015,06,13,19,58,18.90
2015,06,13,19,59,18.90
2015,06,13,20,00,18.90
2015,06,13,20,01,18.80
2015,06,13,20,02,18.80
2015,06,13,20,03,18.70
2015,06,13,20,04,18.70
2015,06,13,20,05,18.70
2015,06,13,20,06,18.60
2015,06,13,20,07,18.60
2015,06,13,20,08,18.60
2015,06,13,20,09,18.60
2015,06,13,20,10,18.60
2015,06,13,20,11,18.70
2015,06,13,20,12,18.60
2015,06,13,20,13,18.60
2015,06,13,20,14,18.60
2015,06,13,20,15,18.50
2015,06,13,20,16,18.50
2015,06,13,20,17,18.50
2015,06,13,20,18,18.40
2015,06,13,20,19,18.30
2015,06,13,20,20,18.20
2015,06,13,20,21,18.20
2015,06,13,20,22,18.20
2015,06,13,20,23,18.20
2015,06,13,20,24,18.20
2015,06,13,20,25,18.20
2015,06,13,20,26,18.20
2015,06,13,20,27,18.20
2015,06,13,20,28,18.20
2015,06,13,20,29,18.30
2015,06,13,20,30,18.30
2015,06,13,20,31,18.30
2015,06,13,20,32,18.40
2015,06,13,20,33,18.40
2015,06,13,20,34,18.40
2015,06,13,20,35,18.40
2015,06,13,20,36,18.30
2015,06,13,20,37,18.30
2015,06,13,20,38,18.20
2015,06,13,20,39,18.20
2015,06,13,20,40,18.20
2015,06,13,20,41,18.10
2015,06,13,20,42,18.10
2015,06,13,20,43,17.90
2015,06,13,20,44,17.90
2015,06,13,20,45,17.80
2015,06,13,20,46,17.70
2015,06,13,20,47,17.60
2015,06,13,20,48,17.50
2015,06,13,20,49,17.40
2015,06,13,20,50,17.30
2015,06,13,20,51,17.10
2015,06,13,20,52,17.00
2015,06,13,20,53,17.00
2015,06,13,20,54,16.80
2015,06,13,20,55,16.70
2015,06,13,20,56,16.70
2015,06,13,20,57,16.70
2015,06,13,20,58,16.70
2015,06,13,20,59,16.70
2015,06,13,21,00,16.70
2015,06,13,21,01,16.70
2015,06,13,21,02,16.70
2015,06,13,21,03,16.70
2015,06,13,21,04,16.70
2015,06,13,21,05,16.70
